Showing default

AMOS 17, 44479

Orbit data source: Space-Track

AMOS 17, 44479 is a payload satellite owned by IAI Spacecom (IL) in GEO that was launched on Tue, 06 Aug 2019 UTC via an FALCON 9 launch vehicle from the Air Force Eastern Test Range (AFETR). Payload-class satellites include a variety of spacecraft equipped with specific instruments for various scientific and technological missions. These include communications satellites like Starlink; space stations such as the ISS; scientific satellites like the Hubble; Earth observation satellites from companies like Planet Labs, Umbra, and HawkEye 360; GPS; miniature CubeSats for education and research; and military/defense satellites.

Not visible in the next 10 days
Identifier
44479, 2019-050A
Orbit
GEO
Country
Flag of UnknownUnknown / ISRA
Related business
Manufacturer
Boeing/ES
Mission
Operational Commercial Communications
Bus & Motor
BSS-702MP, R-4D?
Mass
5,500 kg wet, ~2,500 kg dry
Launch date (UTC)
2019-08-06 (6 years ago)
Launch vehicle
FALCON 9
Launch site
Air Force Eastern Test Range (AFETR)
Object type
Payload
Rocket body
Debris
Shape & HBR
Box + 2 Pan, 17.5 m
Radar Cross Section
56.564 m², Large (>1 m²)

Expand to show TLE details & history
Last TLE update: 1 day ago

TLE from 1 day ago
0 AMOS 17
1 44479U 19050A   25259.71987579  .00000000  00000-0  00000-0 0  9999
2 44479   0.0206 133.0871 0002276  52.9699  85.9991  1.00270101 22443
Epoch: 2025-09-16T17:16Z
TLE epoch observation values (Epoch: 2025-09-16T17:16:37.268Z)
Latitude
0.03034°
Longitude
17.02177°
Altitude
35,785.909 km
Speed
3.075 km/s
True Right ascension
18h 08m 19s
True Declination
0° 01' 49"
Sunlit
Object was in daylight at epoch
Visualization orbit readout
Latitude
Unknown
Longitude
Unknown
Altitude
Unknown
Speed
Unknown
Apparent Right ascension
Unknown
Apparent Declination
Unknown
Sunlit
N/A
Visualization observer readout
Local Sidereal Time
19:55:38
Azimuth
Unknown
Elevation
Unknown
Doppler factor
Unknown
Orbital elements
Apogee altitude
35,797.734 km
Perigee altitude
35,778.54 km
Semi-major axis
42,166.274 km
Eccentricity
0.00023
Inclination
0.0206°
RAAN
133.0871°
Arg. of periapsis
52.9699°
True anomaly
86.02512°
Mean anomaly
85.9991°
Eccentric anomaly
86.01211°
Mean motion
0.25067 °/min
Orbital period
1,436.17 mins
BSTAR
0
Loading maneuver chart data...
Computing Atmospheric mass density...
Loading historical data...
Loading historical data...
Loading historical data...
Loading historical data...
Loading historical data...
Loading historical data...
Loading historical data...
Other satellites on launch #50 in the year 2019 (2019-08-06 UTC)

Documentation

Showing up to 5 results
|